Location: Newark
(50.8922°N, 11.6094°E)
Time: 23:53:15
(UTC+00:00)

N. Korean satellite - Pass Details

Date: 31 January 2020
Orbit: 456 x 505 km, 97.2° (Epoch: 27 February)

Event Time Altitude Azimuth Distance (km) Brightness Sun altitude
Rises 16:55:18 0° 198° (SSW) 2,467 10.7 -8.6°
Reaches altitude 10° 16:57:39 10° 214° (SW) 1,602 10.0 -8.9°
Maximum altitude 17:00:22 22° 267° (W) 1,074 9.4 -9.3°
Drops below altitude 10° 17:03:08 10° 319° (NW) 1,628 9.6 -9.8°
Sets 17:05:33 0° 336° (NNW) 2,518 10.3 -10.1°
